Flag for Germany Weather past 2 weeks in Leverkusen, North Rhine-Westphalia, Germany

Now
46 °F

Passing clouds.


Feels Like: 41 °F
Forecast: 46 / 53 °F
Wind: 13 mph from Southwest

Location: Koeln / Bonn

Current Time: Dec 21, 2014 at 10:37:59 PM

Latest Report: Dec 21, 2014 at 9:50 PM


Visibility: N/A

Pressure: 30.27 "Hg

Humidity: 82%

Dew point: 41 °F

Location of LeverkusenLocation

Historic Weather in Leverkusen — Graph

°F

Leverkusen temperature yesterday

Maximum temperature yesterday: 45 °F (at 11:50 AM)
Minimum temperature yesterday: 37 °F (at 6:50 AM)
Average temperature yesterday: 42 °F

Past Weeks' High & Low Weather Summary

 TemperatureHumidityPressure
High55 °F (Dec 18, 5:20 PM)100% (Dec 7, 12:20 AM)30.42 "Hg (Dec 7, 12:20 AM)
Low30 °F (Dec 14, 10:50 PM)66% (Dec 7, 12:20 PM)29.45 "Hg (Dec 12, 5:20 PM)
Average41 °F86%29.99 "Hg
* Reported Dec 6 9:20 PM — Dec 21 9:20 PM, Leverkusen, Weather by CustomWeather, © 2014

Note: Actual official high and low records may vary slightly from our data, if they occured in-between our weather recording intervals... More about our weather records

Advertising

Leverkusen weather history for previous 24 hours

 ConditionsComfort  
Time TempWeatherWind HumidityBarometerVisibility
9:20 PM
Dec 21
46 °FPartly cloudy.12 mph82%30.27 "HgN/A
8:50 PM46 °FOvercast.14 mph82%30.27 "HgN/A
8:20 PM46 °FOvercast.12 mph82%30.27 "HgN/A
7:50 PM46 °FOvercast.10 mph82%30.30 "HgN/A
7:20 PM46 °FLight rain. Passing clouds.9 mph76%30.30 "HgN/A
6:50 PM46 °FLight rain. Passing clouds.9 mph76%30.30 "HgN/A
6:20 PM46 °FLight rain. Passing clouds.9 mph76%30.30 "HgN/A
5:50 PM46 °FLight rain. Passing clouds.12 mph76%30.30 "HgN/A
5:20 PM46 °FLight rain. Partly cloudy.10 mph76%30.30 "HgN/A
4:50 PM46 °FLight rain. Passing clouds.13 mph76%30.30 "HgN/A
4:20 PM46 °FLight rain. Partly sunny.12 mph76%30.30 "HgN/A
3:50 PM45 °FLight rain. Partly sunny.12 mph81%30.33 "HgN/A
3:20 PM46 °FDrizzle. Partly sunny.13 mph76%30.33 "HgN/A
2:50 PM46 °FLight rain. Partly sunny.10 mph71%30.33 "HgN/A
2:20 PM46 °FLight rain. Partly sunny.10 mph71%30.36 "HgN/A
1:50 PM46 °FLight rain. Partly sunny.9 mph71%30.36 "HgN/A
1:20 PM46 °FPartly sunny.9 mph71%30.36 "HgN/A
12:50 PM46 °FPartly sunny.10 mph71%30.36 "HgN/A
12:20 PM46 °FOvercast.9 mph71%30.39 "HgN/A
11:50 AM45 °FPartly sunny.7 mph76%30.39 "HgN/A
11:20 AM45 °FPartly sunny.9 mph76%30.42 "HgN/A
10:50 AM43 °FBroken clouds.6 mph81%30.42 "HgN/A
10:20 AM43 °FBroken clouds.6 mph81%30.42 "HgN/A
9:50 AM41 °FPartly sunny.7 mph87%30.42 "HgN/A
9:20 AM41 °FPartly sunny.8 mph81%30.42 "HgN/A
8:50 AM39 °FPartly sunny.7 mph87%30.42 "HgN/A
8:20 AM39 °FPassing clouds.6 mph87%30.42 "HgN/A
7:50 AM41 °FPassing clouds.6 mph81%30.42 "HgN/A
7:20 AM41 °FPartly cloudy.7 mph87%30.42 "HgN/A
6:50 AM41 °FPassing clouds.9 mph87%30.42 "HgN/A
6:20 AM41 °FPassing clouds.8 mph87%30.42 "HgN/A
5:50 AM41 °FPassing clouds.9 mph87%30.42 "HgN/A
5:20 AM41 °FPassing clouds.9 mph87%30.42 "HgN/A
4:50 AM41 °FPassing clouds.10 mph87%30.39 "HgN/A
4:20 AM43 °FPartly cloudy.13 mph87%30.42 "HgN/A
3:50 AM43 °FSprinkles. Partly cloudy.12 mph87%30.39 "HgN/A
3:20 AM41 °FPassing clouds.12 mph87%30.39 "HgN/A
2:50 AM41 °FSprinkles. Passing clouds.10 mph87%30.39 "HgN/A
2:20 AM41 °FClear.10 mph87%30.39 "Hg10 mi
1:50 AM41 °FClear.12 mph87%30.36 "Hg10 mi
1:20 AM39 °FPassing clouds.9 mph93%30.36 "HgN/A
12:50 AM41 °FPassing clouds.12 mph87%30.36 "HgN/A
12:20 AM41 °FPassing clouds.12 mph87%30.33 "HgN/A
11:50 PM
Dec 20
41 °FPassing clouds.12 mph87%30.33 "HgN/A
11:20 PM41 °FPassing clouds.9 mph87%30.33 "HgN/A
10:20 PM43 °FSprinkles. Passing clouds.16 mph81%30.30 "HgN/A
Weather by CustomWeather, © 2014

See weather overviewHow to use our weather pages